SCP
0 -0 0 0 0 0 0 0 0 0 0 0 0 0 0 0 0 0 0 0 0 0 0 0 0 0 0 0 0 0 0 0 0 0 0 0 0 0 0 0 0 0 0 0 0 0 0 0 0 0 0 0 0 0
0 -0 0 0 0 0 0 0 0 0 0 0 0 0 0 0 0 0 0 0 0 0 0 0 0 0 0 0 0 0 0 0 0 0 0 0 0 0 0 0 0 0 0 0 0 0 0 0 0 0 0 0 0 -0
0 -0 0 0 0 0 0 0 0 0 0 0 0 0 0 0 0 0 0 0 0 0 0 0 0 0 0 0 0 0 0 0 0 0 0 0 0 0 0 0 0 0 0 0 0 0 0 0 0 0 0 0 0 -0
0 0 -0 -0 0 0 0 0 0 0 0 0 0 0 0 0 0 0 0 0 0 0 0 0 0 0 0 0 0 0 0 0 0 0 0 0 0 0 0 0 0 0 0 0 0 0 0 0 0 0 0 -0 -0 -0
0 0 0 0 0 0 0 0 0 0 0 0 0 0 0 0 0 0 0 0 0 0 0 0 0 0 0 0 0 0 0 0 0 0 0 0 0 0 0 0 0 0 0 0 0 0 0 0 0 0 0 0 0 -0
0 0 0 0 0 0 0 0 0 0 0 0 0 0 0 0 0 0 0 0 0 0 0 0 0 0 0 0 0 0 0 0 0 0 -0 -0 0 0 0 0 0 0 0 0 0 0 0 0 0 0 0 0 -0 -0
0 0 0 0 0 0 0 0 0 0 0 0 0 0 0 0 0 0 0 0 0 0 0 0 0 0 0 0 0 0 0 0 0 0 0 0 -0 0 0 0 0 0 0 0 0 0 -0 -0 0 0 -0 -0 -0 -0
0 0 0 0 0 0 0 0 0 0 0 0 0 0 0 0 0 0 0 0 0 0 0 0 0 0 0 0 0 0 0 0 0 0 0 0 0 0 -0 0 -0 -0 -0 -0 0 0 0 0 0 0 0 0 0 -0
0 0 0 0 0 0 0 0 0 0 0 0 0 0 0 0 0 0 0 0 0 0 0 0 0 0 0 0 0 0 0 0 0 0 0 0 0 0 0 0 0 -0 -0 0 -0 -0 -0 -0 0 0 0 0 0 0
0 0 0 0 0 0 0 0 0 0 0 0 0 0 0 0 0 0 0 0 0 0 0 0 0 0 0 0 0 0 0 0 0 0 0 0 0 0 0 0 0 0 0 -0 -0 -0 0 -0 -0 0 0 0 0 0
0 0 0 0 0 0 0 0 0 0 0 0 0 0 0 0 0 0 0 0 0 0 0 0 0 0 0 0 0 0 0 0 0 0 0 0 0 0 0 0 0 0 0 0 0 0 0 -0 -0 -0 0 0 0 0
0 0 0 0 0 0 0 0 0 0 0 0 0 0 0 0 0 0 0 0 0 0 0 0 0 0 0 0 0 0 0 0 0 0 0 0 0 0 0 0 0 0 0 0 0 0 0 0 0 0 0 0 0 0
0 0 0 0 0 0 0 0 0 0 0 0 0 0 0 0 0 0 0 0 0 0 0 0 0 0 0 0 0 0 0 0 0 0 0 0 0 0 0 0 0 0 0 0 0 0 0 0 0 0 -0 -0 0 0
0 0 0 0 -0 -0 -0 -0 -0 -0 0 0 0 0 0 0 0 0 0 0 0 0 0 0 0 0 0 0 0 0 0 0 -0 -0 0 0 0 0 0 0 0 0 0 0 0 0 0 0 0 0 0 -0 0 0
0 -0 -0 -0 0 0 -0 -0 0 0 0 0 0 0 0 0 0 0 0 0 0 0 0 0 0 0 0 0 0 0 0 0 0 0 0 0 -0 -0 -0 0 0 0 0 0 0 0 0 0 0 0 0 0 0 0
0 0 0 -0 -0 -0 0 -0 0 0 0 0 0 0 0 0 0 0 0 0 0 0 0 0 0 0 0 0 0 -0 -0 0 0 0 0 -0 -0 -0 -0 -0 0 0 0 0 -0 0 0 0 0 0 0 0 0 0
0 0 0 -0 -0 -0 -0 0 0 0 0 0 0 0 0 0 0 0 0 0 0 0 0 0 0 0 0 0 0 0 0 0 0 0 0 -0 0 -0 -0 -0 -0 0 0 0 0 0 0 0 0 0 0 0 0 0
0 0 -0 -0 0 0 0 0 0 0 0 0 0 0 0 0 0 0 0 0 0 0 0 0 0 0 0 0 0 0 0 0 0 0 0 0 0 0 -0 -0 0 0 0 0 0 0 0 0 0 0 0 0 0 0
0 0 -0 -0 0 0 0 0 0 0 0 0 0 0 0 0 0 0 0 0 0 0 0 0 -0 0 0 0 0 0 0 0 0 0 0 0 0 0 0 0 -0 -0 -0 0 0 0 0 0 0 0 0 0 0 0
0 0 0 -0 0 0 0 0 0 -0 -0 -0 0 0 0 0 0 0 0 0 0 0 0 0 0 0 0 0 0 0 0 0 0 0 -0 -0 -0 -0 0 0 0 -0 -0 -0 0 0 0 0 0 0 0 0 0 0
0 0 0 0 0 0 0 0 0 0 0 0 0 0 0 0 0 0 0 0 0 0 0 0 0 0 0 0 0 0 0 0 0 -0 0 0 0 0 -0 -0 -0 -0 -0 -0 -0 -0 0 0 0 0 0 0 0 0
-0 0 0 0 0 0 0 0 0 0 0 0 0 0 0 0 0 0 0 0 0 0 0 0 0 0 0 0 0 0 0 0 0 0 0 0 0 -0 -0 -0 -0 -0 -0 -0 -0 -0 0 0 0 0 0 0 0 0
-0 0 0 0 0 0 0 0 0 0 0 0 0 0 0 0 0 0 0 0 0 0 0 0 0 0 0 0 0 0 0 0 0 0 0 0 0 0 -0 -0 -0 -0 -0 -0 -0 -0 0 0 0 0 0 0 0 0
-0 -0 0 0 0 0 0 0 0 0 0 0 0 0 0 0 0 0 0 0 0 0 0 0 0 0 0 0 0 0 0 0 0 0 0 0 0 0 -0 -0 -0 -0 -0 -0 -0 -0 0 0 0 0 0 0 0 0
0 -0 0 0 0 0 0 0 0 0 0 0 0 0 0 0 0 0 0 0 0 0 0 0 0 0 0 0 0 0 0 0 0 0 0 0 0 0 0 0 -0 -0 -0 -0 -0 -0 -0 0 0 0 0 0 0 0
0 0 0 0 0 0 0 0 0 0 0 0 0 0 0 0 0 0 0 0 0 0 0 0 0 0 0 0 0 0 0 0 0 0 0 0 0 0 0 0 0 0 -0 -0 -0 -0 -0 0 0 0 0 0 0 0
0 0 0 0 0 0 0 0 0 0 0 0 0 0 0 0 0 0 0 0 0 0 0 0 0 0 0 0 0 0 0 0 0 0 0 0 0 0 0 0 0 0 0 0 0 -0 0 0 0 0 0 0 0 0
0 0 0 0 0 0 0 0 0 0 0 0 0 0 0 0 0 0 0 0 0 0 0 0 0 0 0 0 0 0 0 0 0 0 0 0 0 0 0 0 0 0 0 0 0 0 0 0 0 0 0 0 0 0
0 0 0 0 0 0 0 0 0 0 0 0 0 0 0 0 0 0 0 0 0 0 0 0 0 0 0 0 0 0 0 0 0 0 0 0 0 0 0 0 0 0 0 0 0 0 0 0 0 0 0 0 0 0
0 -0 -0 -0 0 0 0 0 0 0 0 0 0 0 0 0 0 0 0 0 0 0 0 0 0 0 0 0 0 0 0 0 0 0 0 0 0 0 0 0 0 0 0 0 0 0 0 0 0 0 0 0 0 0
0 0 -0 0 0 0 0 0 0 0 0 0 0 0 0 0 0 0 0 0 0 0 0 0 0 0 0 0 0 0 0 0 0 0 0 0 0 0 0 0 0 0 0 0 0 0 0 0 0 0 0 0 0 0
0 0 -0 -0 0 0 0 0 0 0 0 0 0 0 0 0 0 0 0 0 0 0 0 0 0 0 -0 0 0 0 0 0 0 0 0 0 0 0 0 0 0 0 0 0 0 0 0 0 0 0 0 0 0 0
0 0 0 0 0 0 0 0 0 0 0 0 0 0 0 0 0 0 0 -0 0 0 0 0 0 0 0 -0 0 -0 -0 -0 -0 -0 -0 0 0 0 0 0 0 0 0 0 0 0 0 0 0 0 0 0 0 0
Wind_Speed_500mb
49 52 46 56 69 70 80 76 69 63 59 56 51 50 49 47 51 47 47 39 37 13 15 23 47 24 21 4 7 10 8 4 8 12 7 8 9 12 7 12 17 18 16 12 11 12 30 16 11 20 20 34 36 19
48 47 47 34 51 59 91 82 71 62 60 56 51 52 44 43 40 41 45 42 40 27 7 29 41 36 24 23 19 12 6 10 19 4 4 5 7 5 9 7 7 10 13 10 18 13 9 24 10 29 22 32 43 28
42 41 37 38 35 40 85 75 71 65 63 59 55 51 45 44 38 37 37 28 33 34 27 39 28 29 50 44 32 13 8 13 10 5 2 6 12 7 10 11 10 10 20 11 3 14 18 34 35 40 44 48 49 45
36 35 34 34 34 50 72 66 65 65 57 59 53 46 42 42 39 35 39 41 38 6 5 7 24 28 42 56 60 53 49 48 29 29 6 6 7 4 6 6 9 10 10 8 14 14 14 35 37 46 48 53 65 65
26 29 33 28 27 68 74 70 66 59 55 52 47 48 40 34 31 29 38 44 46 37 4 4 13 24 22 30 33 50 52 51 27 12 9 7 7 5 6 1 11 9 12 10 21 11 30 41 61 66 71 75 67 60
21 24 24 28 27 69 71 67 63 58 49 47 46 41 37 33 24 25 13 38 46 44 10 3 2 23 36 36 46 34 47 51 41 16 9 21 36 13 6 6 15 41 43 73 37 34 41 39 29 32 34 38 39 33
18 23 25 24 43 63 67 65 60 54 50 47 45 40 37 35 31 33 13 14 40 44 8 4 6 16 41 38 49 42 37 30 31 26 20 27 26 21 6 29 42 55 67 53 45 44 40 35 43 48 56 68 76 78
19 25 20 26 73 66 63 60 57 51 47 41 42 42 37 34 29 30 30 21 24 36 17 5 7 3 27 21 16 34 33 36 28 24 15 9 22 19 19 42 79 81 71 66 75 76 73 70 70 64 63 62 63 62
14 12 18 60 64 63 60 57 51 46 40 35 34 32 30 27 19 26 29 37 34 21 4 10 9 7 16 24 21 14 20 1 16 11 16 18 18 20 30 53 76 86 71 90 70 74 77 70 67 69 70 72 74 69
16 21 64 57 58 56 53 48 43 42 36 34 36 20 13 17 19 20 15 17 25 18 17 6 13 3 19 17 11 5 15 8 3 12 22 16 31 76 77 73 83 82 80 78 69 65 68 65 75 84 88 69 70 70
32 59 53 49 46 47 46 44 43 44 41 37 19 11 19 27 27 16 11 11 10 8 17 20 32 7 26 7 7 13 5 4 6 10 16 8 26 44 95 104 104 89 73 73 77 80 76 71 80 79 69 64 61 58
49 47 45 43 42 43 43 44 46 47 35 35 20 20 20 12 9 9 9 4 5 12 12 9 28 39 16 22 7 10 6 4 13 2 5 10 25 19 23 46 71 86 92 91 92 96 96 88 85 83 76 75 70 63
29 31 33 34 36 41 46 49 51 49 41 34 18 15 13 11 10 15 14 6 2 6 17 16 6 20 15 20 2 6 11 10 1 6 10 9 7 12 23 30 43 49 61 70 87 95 94 90 88 94 104 100 88 66
12 11 12 31 45 51 57 59 59 56 45 15 15 15 11 7 10 10 11 11 15 16 37 32 11 8 14 5 6 7 12 5 8 12 11 4 8 34 32 29 35 41 43 53 65 76 81 88 95 105 110 100 76 64
9 18 18 7 15 38 67 80 75 65 36 19 15 12 11 7 6 7 13 16 20 31 30 8 4 14 4 6 9 6 4 12 11 9 1 10 27 31 30 27 27 29 32 36 40 48 54 57 63 66 66 64 63 62
13 30 30 24 15 7 49 87 79 29 15 8 8 7 5 7 4 4 12 10 23 27 20 5 7 5 10 9 6 15 7 9 2 2 14 24 23 20 23 27 26 24 25 28 30 33 37 46 52 48 50 51 52 53
14 18 17 22 27 43 53 62 26 8 9 7 0 10 9 9 9 14 18 20 30 24 5 5 11 15 2 5 8 8 6 4 7 10 17 15 23 28 25 23 24 22 20 18 18 20 24 29 34 39 41 40 44 45
25 14 15 22 19 20 21 14 11 7 9 7 4 6 7 8 13 11 15 25 20 15 10 5 4 4 3 7 5 5 14 9 12 19 19 19 18 19 20 23 23 21 18 16 12 8 10 15 27 31 33 35 37 40
27 17 12 18 19 8 7 8 10 8 5 6 9 10 9 12 10 11 12 18 16 9 7 3 6 4 5 6 4 11 19 24 19 22 22 21 20 21 22 23 25 23 22 19 15 8 2 12 18 21 24 28 34 38
22 16 14 11 11 7 7 8 8 9 5 4 6 5 8 10 14 17 13 15 13 8 12 8 4 5 7 10 14 15 16 24 25 16 12 23 21 21 23 24 22 22 21 16 12 9 9 14 18 21 24 27 32 40
17 14 7 9 8 9 10 6 8 7 7 6 8 5 6 9 10 9 12 12 18 12 5 10 11 14 12 7 16 15 15 20 24 21 19 20 21 18 17 18 17 15 11 14 13 11 12 17 20 21 23 29 34 40
9 8 3 4 6 8 12 11 9 8 5 6 4 6 8 4 6 8 9 23 12 11 11 21 27 22 14 16 17 17 16 18 19 19 17 19 18 14 17 17 14 11 10 13 13 15 16 18 21 21 23 27 32 36
6 4 7 9 6 10 5 6 4 4 6 2 5 4 5 4 6 6 9 12 10 22 34 36 29 17 10 14 19 17 17 15 11 11 12 14 16 15 14 13 11 11 10 9 12 10 12 17 15 19 24 24 27 33
8 9 14 13 21 2 6 9 5 5 6 6 5 4 3 3 8 8 7 7 10 24 34 35 30 16 6 11 15 18 17 15 12 11 11 9 7 11 12 13 10 9 9 10 10 10 12 13 16 18 22 25 29 33
8 21 16 14 20 13 13 11 11 8 5 5 4 4 4 7 5 7 5 6 20 34 40 34 28 26 23 21 18 18 23 24 23 13 13 12 8 6 10 15 15 12 11 9 6 7 11 12 16 19 22 26 32 35
16 18 12 10 10 8 5 7 9 5 4 5 5 7 7 4 8 6 4 18 22 33 41 39 38 32 20 25 29 26 21 24 26 25 14 11 10 7 7 8 14 14 11 8 4 3 7 12 12 16 22 26 29 36
13 9 14 17 10 11 6 4 6 7 9 9 7 11 6 9 6 3 12 16 32 35 29 25 24 26 30 29 22 20 21 21 24 25 24 21 17 13 7 6 5 9 9 6 3 3 1 7 14 18 23 29 32 36
10 17 12 32 15 17 6 7 9 8 6 14 4 12 7 5 1 15 14 28 28 24 20 20 21 22 22 22 23 22 16 16 18 18 17 16 14 13 10 8 11 10 6 5 8 11 11 10 15 23 29 33 38 42
12 41 21 8 7 13 11 9 6 8 14 7 3 5 6 10 20 30 36 30 24 22 20 22 23 19 16 15 18 22 23 20 14 8 7 9 7 8 8 7 8 11 10 9 11 13 13 16 21 26 32 37 43 47
20 44 14 14 7 11 9 15 10 13 16 14 14 19 20 18 23 37 48 52 36 31 29 27 25 22 24 25 19 15 18 23 19 13 8 6 9 7 8 7 8 12 12 13 18 23 25 24 28 32 36 41 46 52
26 25 12 9 4 11 16 13 11 15 13 17 20 15 13 9 13 34 49 56 46 31 26 23 20 22 23 25 25 17 17 19 17 12 8 6 5 8 8 8 9 13 17 20 22 24 28 33 36 40 44 50 53 54
22 18 12 8 6 17 14 16 5 6 7 7 9 8 6 5 8 26 49 56 51 42 40 33 28 22 20 23 25 25 30 27 16 10 9 5 6 9 9 9 10 13 17 20 23 29 37 40 44 46 50 54 56 56
13 18 11 11 10 12 21 24 2 5 9 7 10 11 11 8 8 35 40 52 55 48 44 34 25 21 18 17 21 22 25 24 16 13 13 12 11 11 11 12 17 21 22 25 30 33 36 42 49 51 52 53 52 51
Wind_Direction_500mb
277 282 276 255 224 230 205 196 196 199 203 205 206 206 214 221 213 217 232 225 216 211 184 203 230 242 242 231 157 181 127 213 168 202 153 221 209 218 166 163 171 173 177 203 210 211 257 185 128 211 239 252 279 297
264 267 275 262 253 223 197 188 196 197 194 197 204 205 211 204 201 207 220 222 237 242 219 223 237 223 219 231 211 217 229 165 182 151 221 204 234 220 173 221 209 197 195 186 191 218 269 210 218 240 245 286 290 308
252 258 260 268 278 225 190 186 189 188 192 199 200 205 208 200 204 214 225 220 219 229 259 263 241 218 221 220 228 210 242 217 212 60 184 223 231 165 199 234 187 246 195 204 160 239 242 260 257 269 288 285 296 304
246 244 243 250 261 226 181 181 186 190 187 190 199 197 196 202 208 211 220 221 221 203 190 251 229 231 232 229 241 244 248 256 262 291 302 258 224 177 237 240 201 197 134 210 258 251 302 284 291 275 286 293 296 295
236 240 236 249 245 182 181 182 184 180 182 186 190 188 185 197 210 217 217 222 221 205 183 200 260 209 212 220 233 234 238 244 244 214 228 247 316 337 247 101 254 181 205 205 240 220 227 250 263 267 275 283 291 299
236 241 239 255 284 184 175 175 176 178 181 178 185 190 196 196 202 192 200 223 218 216 226 252 280 245 236 238 235 238 235 235 226 221 217 241 234 222 272 238 236 243 277 255 264 271 276 278 281 283 298 300 308 311
235 227 240 240 181 164 170 172 173 173 178 179 181 188 199 198 190 181 185 177 195 202 177 312 290 229 228 230 229 228 236 228 221 229 222 233 236 209 218 251 255 265 272 268 279 289 302 291 286 284 286 288 293 297
228 237 241 221 175 167 166 166 167 172 179 181 183 196 194 190 190 207 190 133 148 171 175 194 260 310 198 192 205 222 224 230 227 227 233 216 253 207 243 242 253 256 260 264 264 273 278 284 289 286 285 288 290 288
230 261 224 148 156 159 159 163 165 167 169 174 176 181 184 194 184 222 212 221 233 217 236 153 153 214 189 205 195 185 202 136 228 204 224 207 238 226 226 242 247 251 245 253 261 267 274 271 274 281 283 282 283 284
209 198 153 149 154 155 156 158 163 169 168 166 170 169 166 160 162 148 157 172 201 193 211 200 190 233 181 185 201 165 191 204 186 231 216 213 237 240 250 250 245 247 250 251 247 246 246 258 269 271 275 282 281 278
123 131 140 146 154 155 159 166 170 169 169 173 172 141 134 144 153 175 163 168 200 201 207 192 191 176 198 135 196 207 213 202 200 238 187 225 239 240 244 245 245 250 248 249 249 252 257 265 273 271 271 279 287 285
130 135 145 154 162 170 175 178 178 176 175 179 167 132 144 180 183 179 177 153 146 213 204 166 206 201 206 200 133 199 217 245 244 256 153 239 234 244 257 251 247 247 253 254 253 256 258 263 261 263 267 278 284 283
146 165 179 189 195 194 193 190 187 188 177 166 176 148 154 188 188 174 182 253 216 213 172 164 177 164 173 204 158 148 180 228 42 230 222 229 311 340 315 285 267 259 256 254 252 253 254 253 249 256 266 270 276 271
136 170 232 244 223 214 202 194 190 187 184 181 171 163 193 196 232 188 188 172 202 176 171 175 140 156 176 169 200 161 229 93 225 256 265 231 323 318 316 300 287 282 270 261 255 252 251 250 250 253 257 266 263 258
85 12 111 34 248 230 210 197 189 191 191 171 173 196 193 172 69 135 164 157 163 161 158 146 183 188 207 210 199 220 274 234 212 216 315 349 333 326 325 319 297 294 289 279 270 265 262 259 253 254 255 252 249 248
50 62 65 65 72 188 178 181 181 158 135 151 125 122 83 89 309 160 180 162 162 165 160 151 176 164 222 185 188 211 224 240 257 290 329 325 317 312 327 327 322 309 301 292 276 264 255 247 247 244 240 237 237 235
76 63 78 80 88 96 116 135 131 95 99 102 326 98 124 101 169 184 174 185 179 161 178 168 219 209 136 167 205 130 281 331 336 329 330 331 340 346 337 332 334 336 331 316 297 272 255 242 230 222 222 219 217 210
75 71 138 139 135 112 78 52 84 91 63 80 109 150 128 118 123 157 183 172 160 198 175 193 322 209 253 145 123 36 24 3 5 1 352 358 351 351 351 351 0 1 360 353 338 310 262 235 216 199 196 197 201 200
57 71 96 151 153 100 64 46 44 93 102 116 113 122 125 122 127 155 167 179 189 159 120 85 53 36 40 27 354 357 8 6 333 345 7 1 353 349 3 14 10 12 20 19 17 16 184 199 183 171 179 183 187 183
41 54 84 117 145 102 84 61 66 80 109 124 110 119 118 121 120 92 81 127 102 67 45 41 42 27 327 321 338 348 9 6 6 27 10 8 3 1 7 14 19 19 19 29 47 83 136 141 142 144 150 159 170 167
29 32 63 96 71 89 92 101 78 87 104 109 122 98 89 85 68 61 48 69 61 36 60 47 350 332 325 329 4 19 34 26 28 17 357 356 359 7 16 9 9 14 22 41 60 93 103 101 106 118 135 146 153 153
10 23 94 87 71 74 81 56 88 98 88 105 68 44 57 70 63 31 60 54 60 39 19 347 344 347 14 42 44 38 38 41 35 25 1 350 10 13 12 15 9 358 13 41 39 56 76 89 99 117 128 140 147 148
15 37 68 42 92 53 53 59 73 66 103 225 87 54 27 39 51 90 78 64 83 17 2 358 358 0 40 46 32 17 13 18 20 23 21 13 10 6 4 358 359 3 9 55 67 62 84 99 111 124 127 140 143 141
53 54 32 40 25 12 358 26 54 60 81 44 71 78 3 338 1 64 78 56 8 345 359 10 12 24 17 352 353 357 354 359 356 355 348 12 10 345 346 358 3 11 20 48 87 99 106 130 140 147 149 147 145 147
68 10 18 2 16 23 25 6 351 41 56 345 89 33 351 340 78 60 69 10 359 353 360 4 13 14 1 344 327 327 323 318 324 330 328 326 342 11 351 347 346 354 20 41 54 101 118 127 142 145 146 152 153 152
63 12 39 343 345 34 333 24 14 353 352 49 25 322 344 59 64 61 23 339 346 345 348 347 346 351 7 351 335 322 302 298 294 299 300 305 293 307 347 347 337 345 1 349 55 70 132 143 145 146 149 147 151 153
44 336 345 13 327 322 328 11 34 55 46 20 343 345 19 68 68 328 343 348 340 345 345 343 344 346 346 351 347 331 314 298 288 282 280 284 285 278 283 302 313 308 328 328 306 105 218 177 158 163 162 155 155 157
47 28 348 322 357 14 6 35 30 22 335 344 302 32 77 52 44 342 342 347 346 351 358 356 4 7 5 1 359 354 344 318 298 286 277 275 274 268 272 272 270 281 256 208 189 173 172 181 177 175 171 166 161 161
19 349 347 325 358 48 43 23 14 356 340 341 29 76 106 71 69 49 27 11 2 5 18 33 37 30 9 2 8 15 6 355 346 324 324 312 287 269 255 252 242 236 212 199 187 163 159 172 174 173 169 167 165 162
348 352 347 352 35 22 2 3 4 17 39 64 91 103 104 110 61 39 28 24 24 24 23 20 16 11 13 13 14 7 3 6 0 346 311 291 294 261 235 212 192 205 204 195 188 176 166 166 164 163 165 165 162 158
337 348 330 336 42 17 360 6 35 50 55 61 77 94 120 134 53 25 18 16 20 19 21 23 17 13 14 13 17 15 13 2 357 342 317 297 256 204 186 187 194 188 204 201 188 170 162 161 161 160 163 159 156 156
333 355 339 325 343 353 359 15 33 55 53 55 48 52 78 93 61 14 3 6 13 19 18 11 10 14 13 13 14 12 5 1 7 32 63 89 143 147 151 167 169 174 178 177 177 169 161 159 157 158 159 157 154 154
314 348 345 319 321 351 353 354 55 88 59 62 44 42 43 50 72 14 1 3 6 6 5 5 4 8 10 12 14 14 12 11 22 41 80 104 117 125 133 144 153 159 165 160 153 154 155 155 151 151 152 151 150 153
Wind_Speed_850mb
49 52 46 56 69 70 80 76 69 63 59 56 51 50 49 47 51 47 47 39 37 13 15 23 47 24 21 4 7 10 8 4 8 12 7 8 9 12 7 12 17 18 16 12 11 12 30 16 11 20 20 34 36 19
48 47 47 34 51 59 91 82 71 62 60 56 51 52 44 43 40 41 45 42 40 27 7 29 41 36 24 23 19 12 6 10 19 4 4 5 7 5 9 7 7 10 13 10 18 13 9 24 10 29 22 32 43 28
42 41 37 38 35 40 85 75 71 65 63 59 55 51 45 44 38 37 37 28 33 34 27 39 28 29 50 44 32 13 8 13 10 5 2 6 12 7 10 11 10 10 20 11 3 14 18 34 35 40 44 48 49 45
36 35 34 34 34 50 72 66 65 65 57 59 53 46 42 42 39 35 39 41 38 6 5 7 24 28 42 56 60 53 49 48 29 29 6 6 7 4 6 6 9 10 10 8 14 14 14 35 37 46 48 53 65 65
26 29 33 28 27 68 74 70 66 59 55 52 47 48 40 34 31 29 38 44 46 37 4 4 13 24 22 30 33 50 52 51 27 12 9 7 7 5 6 1 11 9 12 10 21 11 30 41 61 66 71 75 67 60
21 24 24 28 27 69 71 67 63 58 49 47 46 41 37 33 24 25 13 38 46 44 10 3 2 23 36 36 46 34 47 51 41 16 9 21 36 13 6 6 15 41 43 73 37 34 41 39 29 32 34 38 39 33
18 23 25 24 43 63 67 65 60 54 50 47 45 40 37 35 31 33 13 14 40 44 8 4 6 16 41 38 49 42 37 30 31 26 20 27 26 21 6 29 42 55 67 53 45 44 40 35 43 48 56 68 76 78
19 25 20 26 73 66 63 60 57 51 47 41 42 42 37 34 29 30 30 21 24 36 17 5 7 3 27 21 16 34 33 36 28 24 15 9 22 19 19 42 79 81 71 66 75 76 73 70 70 64 63 62 63 62
14 12 18 60 64 63 60 57 51 46 40 35 34 32 30 27 19 26 29 37 34 21 4 10 9 7 16 24 21 14 20 1 16 11 16 18 18 20 30 53 76 86 71 90 70 74 77 70 67 69 70 72 74 69
16 21 64 57 58 56 53 48 43 42 36 34 36 20 13 17 19 20 15 17 25 18 17 6 13 3 19 17 11 5 15 8 3 12 22 16 31 76 77 73 83 82 80 78 69 65 68 65 75 84 88 69 70 70
32 59 53 49 46 47 46 44 43 44 41 37 19 11 19 27 27 16 11 11 10 8 17 20 32 7 26 7 7 13 5 4 6 10 16 8 26 44 95 104 104 89 73 73 77 80 76 71 80 79 69 64 61 58
49 47 45 43 42 43 43 44 46 47 35 35 20 20 20 12 9 9 9 4 5 12 12 9 28 39 16 22 7 10 6 4 13 2 5 10 25 19 23 46 71 86 92 91 92 96 96 88 85 83 76 75 70 63
29 31 33 34 36 41 46 49 51 49 41 34 18 15 13 11 10 15 14 6 2 6 17 16 6 20 15 20 2 6 11 10 1 6 10 9 7 12 23 30 43 49 61 70 87 95 94 90 88 94 104 100 88 66
12 11 12 31 45 51 57 59 59 56 45 15 15 15 11 7 10 10 11 11 15 16 37 32 11 8 14 5 6 7 12 5 8 12 11 4 8 34 32 29 35 41 43 53 65 76 81 88 95 105 110 100 76 64
9 18 18 7 15 38 67 80 75 65 36 19 15 12 11 7 6 7 13 16 20 31 30 8 4 14 4 6 9 6 4 12 11 9 1 10 27 31 30 27 27 29 32 36 40 48 54 57 63 66 66 64 63 62
13 30 30 24 15 7 49 87 79 29 15 8 8 7 5 7 4 4 12 10 23 27 20 5 7 5 10 9 6 15 7 9 2 2 14 24 23 20 23 27 26 24 25 28 30 33 37 46 52 48 50 51 52 53
14 18 17 22 27 43 53 62 26 8 9 7 0 10 9 9 9 14 18 20 30 24 5 5 11 15 2 5 8 8 6 4 7 10 17 15 23 28 25 23 24 22 20 18 18 20 24 29 34 39 41 40 44 45
25 14 15 22 19 20 21 14 11 7 9 7 4 6 7 8 13 11 15 25 20 15 10 5 4 4 3 7 5 5 14 9 12 19 19 19 18 19 20 23 23 21 18 16 12 8 10 15 27 31 33 35 37 40
27 17 12 18 19 8 7 8 10 8 5 6 9 10 9 12 10 11 12 18 16 9 7 3 6 4 5 6 4 11 19 24 19 22 22 21 20 21 22 23 25 23 22 19 15 8 2 12 18 21 24 28 34 38
22 16 14 11 11 7 7 8 8 9 5 4 6 5 8 10 14 17 13 15 13 8 12 8 4 5 7 10 14 15 16 24 25 16 12 23 21 21 23 24 22 22 21 16 12 9 9 14 18 21 24 27 32 40
17 14 7 9 8 9 10 6 8 7 7 6 8 5 6 9 10 9 12 12 18 12 5 10 11 14 12 7 16 15 15 20 24 21 19 20 21 18 17 18 17 15 11 14 13 11 12 17 20 21 23 29 34 40
9 8 3 4 6 8 12 11 9 8 5 6 4 6 8 4 6 8 9 23 12 11 11 21 27 22 14 16 17 17 16 18 19 19 17 19 18 14 17 17 14 11 10 13 13 15 16 18 21 21 23 27 32 36
6 4 7 9 6 10 5 6 4 4 6 2 5 4 5 4 6 6 9 12 10 22 34 36 29 17 10 14 19 17 17 15 11 11 12 14 16 15 14 13 11 11 10 9 12 10 12 17 15 19 24 24 27 33
8 9 14 13 21 2 6 9 5 5 6 6 5 4 3 3 8 8 7 7 10 24 34 35 30 16 6 11 15 18 17 15 12 11 11 9 7 11 12 13 10 9 9 10 10 10 12 13 16 18 22 25 29 33
8 21 16 14 20 13 13 11 11 8 5 5 4 4 4 7 5 7 5 6 20 34 40 34 28 26 23 21 18 18 23 24 23 13 13 12 8 6 10 15 15 12 11 9 6 7 11 12 16 19 22 26 32 35
16 18 12 10 10 8 5 7 9 5 4 5 5 7 7 4 8 6 4 18 22 33 41 39 38 32 20 25 29 26 21 24 26 25 14 11 10 7 7 8 14 14 11 8 4 3 7 12 12 16 22 26 29 36
13 9 14 17 10 11 6 4 6 7 9 9 7 11 6 9 6 3 12 16 32 35 29 25 24 26 30 29 22 20 21 21 24 25 24 21 17 13 7 6 5 9 9 6 3 3 1 7 14 18 23 29 32 36
10 17 12 32 15 17 6 7 9 8 6 14 4 12 7 5 1 15 14 28 28 24 20 20 21 22 22 22 23 22 16 16 18 18 17 16 14 13 10 8 11 10 6 5 8 11 11 10 15 23 29 33 38 42
12 41 21 8 7 13 11 9 6 8 14 7 3 5 6 10 20 30 36 30 24 22 20 22 23 19 16 15 18 22 23 20 14 8 7 9 7 8 8 7 8 11 10 9 11 13 13 16 21 26 32 37 43 47
20 44 14 14 7 11 9 15 10 13 16 14 14 19 20 18 23 37 48 52 36 31 29 27 25 22 24 25 19 15 18 23 19 13 8 6 9 7 8 7 8 12 12 13 18 23 25 24 28 32 36 41 46 52
26 25 12 9 4 11 16 13 11 15 13 17 20 15 13 9 13 34 49 56 46 31 26 23 20 22 23 25 25 17 17 19 17 12 8 6 5 8 8 8 9 13 17 20 22 24 28 33 36 40 44 50 53 54
22 18 12 8 6 17 14 16 5 6 7 7 9 8 6 5 8 26 49 56 51 42 40 33 28 22 20 23 25 25 30 27 16 10 9 5 6 9 9 9 10 13 17 20 23 29 37 40 44 46 50 54 56 56
13 18 11 11 10 12 21 24 2 5 9 7 10 11 11 8 8 35 40 52 55 48 44 34 25 21 18 17 21 22 25 24 16 13 13 12 11 11 11 12 17 21 22 25 30 33 36 42 49 51 52 53 52 51
Wind_Direction_850mb
277 282 276 255 224 230 205 196 196 199 203 205 206 206 214 221 213 217 232 225 216 211 184 203 230 242 242 231 157 181 127 213 168 202 153 221 209 218 166 163 171 173 177 203 210 211 257 185 128 211 239 252 279 297
264 267 275 262 253 223 197 188 196 197 194 197 204 205 211 204 201 207 220 222 237 242 219 223 237 223 219 231 211 217 229 165 182 151 221 204 234 220 173 221 209 197 195 186 191 218 269 210 218 240 245 286 290 308
252 258 260 268 278 225 190 186 189 188 192 199 200 205 208 200 204 214 225 220 219 229 259 263 241 218 221 220 228 210 242 217 212 60 184 223 231 165 199 234 187 246 195 204 160 239 242 260 257 269 288 285 296 304
246 244 243 250 261 226 181 181 186 190 187 190 199 197 196 202 208 211 220 221 221 203 190 251 229 231 232 229 241 244 248 256 262 291 302 258 224 177 237 240 201 197 134 210 258 251 302 284 291 275 286 293 296 295
236 240 236 249 245 182 181 182 184 180 182 186 190 188 185 197 210 217 217 222 221 205 183 200 260 209 212 220 233 234 238 244 244 214 228 247 316 337 247 101 254 181 205 205 240 220 227 250 263 267 275 283 291 299
236 241 239 255 284 184 175 175 176 178 181 178 185 190 196 196 202 192 200 223 218 216 226 252 280 245 236 238 235 238 235 235 226 221 217 241 234 222 272 238 236 243 277 255 264 271 276 278 281 283 298 300 308 311
235 227 240 240 181 164 170 172 173 173 178 179 181 188 199 198 190 181 185 177 195 202 177 312 290 229 228 230 229 228 236 228 221 229 222 233 236 209 218 251 255 265 272 268 279 289 302 291 286 284 286 288 293 297
228 237 241 221 175 167 166 166 167 172 179 181 183 196 194 190 190 207 190 133 148 171 175 194 260 310 198 192 205 222 224 230 227 227 233 216 253 207 243 242 253 256 260 264 264 273 278 284 289 286 285 288 290 288
230 261 224 148 156 159 159 163 165 167 169 174 176 181 184 194 184 222 212 221 233 217 236 153 153 214 189 205 195 185 202 136 228 204 224 207 238 226 226 242 247 251 245 253 261 267 274 271 274 281 283 282 283 284
209 198 153 149 154 155 156 158 163 169 168 166 170 169 166 160 162 148 157 172 201 193 211 200 190 233 181 185 201 165 191 204 186 231 216 213 237 240 250 250 245 247 250 251 247 246 246 258 269 271 275 282 281 278
123 131 140 146 154 155 159 166 170 169 169 173 172 141 134 144 153 175 163 168 200 201 207 192 191 176 198 135 196 207 213 202 200 238 187 225 239 240 244 245 245 250 248 249 249 252 257 265 273 271 271 279 287 285
130 135 145 154 162 170 175 178 178 176 175 179 167 132 144 180 183 179 177 153 146 213 204 166 206 201 206 200 133 199 217 245 244 256 153 239 234 244 257 251 247 247 253 254 253 256 258 263 261 263 267 278 284 283
146 165 179 189 195 194 193 190 187 188 177 166 176 148 154 188 188 174 182 253 216 213 172 164 177 164 173 204 158 148 180 228 42 230 222 229 311 340 315 285 267 259 256 254 252 253 254 253 249 256 266 270 276 271
136 170 232 244 223 214 202 194 190 187 184 181 171 163 193 196 232 188 188 172 202 176 171 175 140 156 176 169 200 161 229 93 225 256 265 231 323 318 316 300 287 282 270 261 255 252 251 250 250 253 257 266 263 258
85 12 111 34 248 230 210 197 189 191 191 171 173 196 193 172 69 135 164 157 163 161 158 146 183 188 207 210 199 220 274 234 212 216 315 349 333 326 325 319 297 294 289 279 270 265 262 259 253 254 255 252 249 248
50 62 65 65 72 188 178 181 181 158 135 151 125 122 83 89 309 160 180 162 162 165 160 151 176 164 222 185 188 211 224 240 257 290 329 325 317 312 327 327 322 309 301 292 276 264 255 247 247 244 240 237 237 235
76 63 78 80 88 96 116 135 131 95 99 102 326 98 124 101 169 184 174 185 179 161 178 168 219 209 136 167 205 130 281 331 336 329 330 331 340 346 337 332 334 336 331 316 297 272 255 242 230 222 222 219 217 210
75 71 138 139 135 112 78 52 84 91 63 80 109 150 128 118 123 157 183 172 160 198 175 193 322 209 253 145 123 36 24 3 5 1 352 358 351 351 351 351 0 1 360 353 338 310 262 235 216 199 196 197 201 200
57 71 96 151 153 100 64 46 44 93 102 116 113 122 125 122 127 155 167 179 189 159 120 85 53 36 40 27 354 357 8 6 333 345 7 1 353 349 3 14 10 12 20 19 17 16 184 199 183 171 179 183 187 183
41 54 84 117 145 102 84 61 66 80 109 124 110 119 118 121 120 92 81 127 102 67 45 41 42 27 327 321 338 348 9 6 6 27 10 8 3 1 7 14 19 19 19 29 47 83 136 141 142 144 150 159 170 167
29 32 63 96 71 89 92 101 78 87 104 109 122 98 89 85 68 61 48 69 61 36 60 47 350 332 325 329 4 19 34 26 28 17 357 356 359 7 16 9 9 14 22 41 60 93 103 101 106 118 135 146 153 153
10 23 94 87 71 74 81 56 88 98 88 105 68 44 57 70 63 31 60 54 60 39 19 347 344 347 14 42 44 38 38 41 35 25 1 350 10 13 12 15 9 358 13 41 39 56 76 89 99 117 128 140 147 148
15 37 68 42 92 53 53 59 73 66 103 225 87 54 27 39 51 90 78 64 83 17 2 358 358 0 40 46 32 17 13 18 20 23 21 13 10 6 4 358 359 3 9 55 67 62 84 99 111 124 127 140 143 141
53 54 32 40 25 12 358 26 54 60 81 44 71 78 3 338 1 64 78 56 8 345 359 10 12 24 17 352 353 357 354 359 356 355 348 12 10 345 346 358 3 11 20 48 87 99 106 130 140 147 149 147 145 147
68 10 18 2 16 23 25 6 351 41 56 345 89 33 351 340 78 60 69 10 359 353 360 4 13 14 1 344 327 327 323 318 324 330 328 326 342 11 351 347 346 354 20 41 54 101 118 127 142 145 146 152 153 152
63 12 39 343 345 34 333 24 14 353 352 49 25 322 344 59 64 61 23 339 346 345 348 347 346 351 7 351 335 322 302 298 294 299 300 305 293 307 347 347 337 345 1 349 55 70 132 143 145 146 149 147 151 153
44 336 345 13 327 322 328 11 34 55 46 20 343 345 19 68 68 328 343 348 340 345 345 343 344 346 346 351 347 331 314 298 288 282 280 284 285 278 283 302 313 308 328 328 306 105 218 177 158 163 162 155 155 157
47 28 348 322 357 14 6 35 30 22 335 344 302 32 77 52 44 342 342 347 346 351 358 356 4 7 5 1 359 354 344 318 298 286 277 275 274 268 272 272 270 281 256 208 189 173 172 181 177 175 171 166 161 161
19 349 347 325 358 48 43 23 14 356 340 341 29 76 106 71 69 49 27 11 2 5 18 33 37 30 9 2 8 15 6 355 346 324 324 312 287 269 255 252 242 236 212 199 187 163 159 172 174 173 169 167 165 162
348 352 347 352 35 22 2 3 4 17 39 64 91 103 104 110 61 39 28 24 24 24 23 20 16 11 13 13 14 7 3 6 0 346 311 291 294 261 235 212 192 205 204 195 188 176 166 166 164 163 165 165 162 158
337 348 330 336 42 17 360 6 35 50 55 61 77 94 120 134 53 25 18 16 20 19 21 23 17 13 14 13 17 15 13 2 357 342 317 297 256 204 186 187 194 188 204 201 188 170 162 161 161 160 163 159 156 156
333 355 339 325 343 353 359 15 33 55 53 55 48 52 78 93 61 14 3 6 13 19 18 11 10 14 13 13 14 12 5 1 7 32 63 89 143 147 151 167 169 174 178 177 177 169 161 159 157 158 159 157 154 154
314 348 345 319 321 351 353 354 55 88 59 62 44 42 43 50 72 14 1 3 6 6 5 5 4 8 10 12 14 14 12 11 22 41 80 104 117 125 133 144 153 159 165 160 153 154 155 155 151 151 152 151 150 153